Tucson Davis Monthan, AZ

3:07 PM MST on December 07, 2019 (GMT -0700)
Davis-Monthan Air Force Base

Weather History for KDMA - October, 2019

Change the Weather History Date:

Friday, October 11, 2019

  Actual Average Record
Temperature  
Mean Temperature 70 °F -  
Max Temperature 86 °F 85 °F 99 °F (1950)
Min Temperature 55 °F 57 °F 43 °F (1973)
Cooling Degree Days 6    
Growing Degree Days 20 (Base 50)    
Moisture  
Dew Point 33 °F    
Average Humidity 28    
Maximum Humidity 50    
Minimum Humidity 17    
Precipitation  
Precipitation 0.00 in - - ()
Sea Level Pressure  
Sea Level Pressure 29.89 in    
Wind  
Wind Speed 5 mph (ESE)    
Max Wind Speed 8 mph    
Max Gust Speed -    
Visibility 10 miles    
Events      
Averages and records for this station are not official NWS values.
T = Trace of Precipitation, MM = Missing Value Source: NWS Daily Summary

Daily Weather History Graph

Daily Weather History Graph

Search for Another Location

Airport or City:

Astronomy

Oct. 11, 2019 Rise Set
Actual Time 6:24 AM MST 5:55 PM MST
Civil Twilight 5:59 AM MST 6:20 PM MST
Nautical Twilight 5:31 AM MST 6:48 PM MST
Astronomical Twilight 5:02 AM MST 7:17 PM MST
Moon 5:16 PM MST (10/11) 4:20 AM MST (10/11)
Length of Visible Light 12h 20m
Length of Day
11h 31m
Waxing Gibbous, 96% of the Moon is Illuminated
Oct 11
Waxing Gibbous
Oct 13
Full
Oct 21
Last Quarter
Oct 27
New
Nov 4
First Quarter

Hourly Weather History & Observations

Time (MST) Temp. Dew Point Humidity Pressure Visibility Wind Dir Wind Speed Gust Speed Precip Events Conditions
12:58 AM 58.3 °F 31.5 °F 36% 29.88 in 10.0 mi SSE 6.9 mph - N/A   Clear
1:58 AM 57.4 °F 31.3 °F 37% 29.90 in 10.0 mi SSE 6.9 mph - N/A   Clear
2:58 AM 55.4 °F 32.0 °F 41% 29.91 in 10.0 mi SE 6.9 mph - N/A   Clear
3:58 AM 55.0 °F 36.7 °F 50% 29.91 in 10.0 mi SE 8.1 mph - N/A   Clear
4:58 AM 55.2 °F 36.3 °F 49% 29.93 in 10.0 mi Calm Calm - N/A   Clear
5:58 AM 56.7 °F 32.5 °F 40% 29.94 in 10.0 mi East 4.6 mph - N/A   Clear
6:58 AM 56.7 °F 30.7 °F 37% 29.96 in 10.0 mi Calm Calm - N/A   Clear
7:58 AM 63.7 °F 28.2 °F 26% 29.96 in 10.0 mi East 6.9 mph - N/A   Clear
8:58 AM 69.6 °F 30.2 °F 23% 29.96 in 10.0 mi ENE 3.5 mph - N/A   Clear
9:58 AM 73.4 °F 31.1 °F 21% 29.96 in 10.0 mi Calm Calm - N/A   Clear
10:58 AM 76.8 °F 32.7 °F 20% 29.94 in 10.0 mi Calm Calm - N/A   Clear
11:58 AM 81.5 °F 35.2 °F 19% 29.91 in 10.0 mi North 5.8 mph - N/A   Clear
12:58 PM 83.7 °F 37.0 °F 19% 29.88 in 10.0 mi ESE 5.8 mph - N/A   Clear
1:58 PM 84.9 °F 35.2 °F 17% 29.85 in 10.0 mi Calm Calm - N/A   Clear
2:58 PM 86.2 °F 36.1 °F 17% 29.84 in 10.0 mi Calm Calm - N/A   Clear
4:58 PM 85.6 °F 37.2 °F 18% 29.80 in 10.0 mi Calm Calm - N/A   Clear
5:58 PM 81.7 °F 37.9 °F 21% 29.80 in 10.0 mi North 4.6 mph - N/A   Clear
7:58 PM 75.7 °F 31.8 °F 20% 29.84 in 10.0 mi SSW 5.8 mph - N/A   Clear
8:58 PM 71.6 °F 31.8 °F 23% 29.86 in 10.0 mi WSW 4.6 mph - N/A   Clear
9:58 PM 68.5 °F 33.3 °F 27% 29.86 in 10.0 mi Calm Calm - N/A   Clear
10:58 PM 66.7 °F 33.4 °F 29% 29.86 in 10.0 mi ENE 3.5 mph - N/A   Clear
11:58 PM 66.2 °F 33.1 °F 29% 29.83 in 10.0 mi ESE 8.1 mph - N/A   Clear